Fullerton, CA

3:16 PM PDT on April 22, 2018 (GMT -0700)
Fullerton Municipal

Weather History for KFUL - October, 2011

Change the Weather History Date:

Tuesday, October 11, 2011

  Actual Average Record
Temperature  
Mean Temperature 70 °F 69 °F  
Max Temperature 83 °F 79 °F 100 °F (2015)
Min Temperature 57 °F 59 °F 51 °F (2008)
Degree Days  
Heating Degree Days 0 0  
Month to date heating degree days 9 0  
Since 1 July heating degree days 9 1  
Cooling Degree Days 5 4  
Month to date cooling degree days 52 55  
Year to date cooling degree days 1076 1173  
Growing Degree Days 20 (Base 50)    
Moisture  
Dew Point 55 °F    
Average Humidity 62    
Maximum Humidity 87    
Minimum Humidity 36    
Precipitation  
Precipitation 0.00 in 0.02 in 0.14 in (2012)
Month to date precipitation 0.70 0.15  
Year to date precipitation 6.33 10.13  
Since 1 July precipitation 0.76  
Snow  
Snow 0.00 in - - ()
Month to date snowfall 0.0  
Year to date snowfall 0.0  
Snow Depth 0.00 in    
Sea Level Pressure  
Sea Level Pressure 29.86 in    
Wind  
Wind Speed 2 mph (SW)    
Max Wind Speed 8 mph    
Max Gust Speed 21 mph    
Visibility 7 miles    
Events      
T = Trace of Precipitation, MM = Missing Value Source: NWS Daily Summary

Daily Weather History Graph

Daily Weather History Graph

Search for Another Location

Airport or City:

Astronomy

Oct. 11, 2011 Rise Set
Actual Time 6:53 AM PDT 6:23 PM PDT
Civil Twilight 6:28 AM PDT 6:48 PM PDT
Nautical Twilight 5:59 AM PDT 7:17 PM PDT
Astronomical Twilight 5:30 AM PDT 7:46 PM PDT
Moon 6:00 PM PDT (10/11) 6:34 AM PDT (10/11)
Length of Visible Light 12h 19m
Length of Day
11h 29m
Full, 100% of the Moon is Illuminated
Oct 11
Full
Oct 11
Full
Oct 19
Last Quarter
Oct 26
New
Nov 2
First Quarter

Hourly Weather History & Observations

Time (PDT) Temp. Heat Index Dew Point Humidity Pressure Visibility Wind Dir Wind Speed Gust Speed Precip Events Conditions
12:53 AM 63.0 °F - 57.0 °F 81% 29.88 in 6.0 mi Calm Calm - N/A   Haze
1:53 AM 62.1 °F - 57.0 °F 84% 29.88 in 5.0 mi Calm Calm - N/A   Haze
3:53 AM 61.0 °F - 55.9 °F 83% 29.88 in 5.0 mi Calm Calm - N/A   Haze
4:53 AM 59.0 °F - 55.0 °F 87% 29.88 in 3.0 mi Calm Calm - N/A   Partly Cloudy
5:05 AM 59.0 °F - 55.4 °F 88% 29.88 in 6.0 mi Calm Calm - N/A   Mostly Cloudy
5:45 AM 57.2 °F - 53.6 °F 88% 29.89 in 7.0 mi Calm Calm - N/A   Scattered Clouds
5:53 AM 59.0 °F - 54.0 °F 83% 29.89 in 6.0 mi Calm Calm - N/A   Haze
7:53 AM 60.1 °F - 55.9 °F 86% 29.89 in 3.0 mi Calm Calm - N/A   Clear
8:53 AM 64.9 °F - 57.0 °F 75% 29.90 in 4.0 mi Calm Calm - N/A   Haze
9:53 AM 70.0 °F - 54.0 °F 57% 29.90 in 6.0 mi Calm Calm - N/A   Haze
10:53 AM 75.0 °F - 53.1 °F 46% 29.89 in 6.0 mi Calm Calm - N/A   Haze
11:53 AM 80.1 °F - 51.1 °F 36% 29.89 in 9.0 mi Calm Calm - N/A   Clear
1:53 PM 82.9 °F 82.6 °F 57.9 °F 42% 29.83 in 7.0 mi SSW 6.9 mph - N/A   Clear
3:53 PM 80.1 °F 80.2 °F 55.9 °F 43% 29.81 in 10.0 mi Variable 5.8 mph - N/A   Clear
4:53 PM 82.0 °F 81.6 °F 55.9 °F 41% 29.81 in 10.0 mi South 5.8 mph - N/A   Clear
5:53 PM 81.0 °F 80.4 °F 53.1 °F 38% 29.81 in 10.0 mi West 4.6 mph - N/A   Clear
6:53 PM 77.0 °F - 53.1 °F 43% 29.82 in 10.0 mi WSW 3.5 mph - N/A   Clear
7:53 PM 73.9 °F - 53.1 °F 48% 29.83 in 10.0 mi Calm Calm - N/A   Clear
8:53 PM 72.0 °F - 57.9 °F 61% 29.84 in 10.0 mi Calm Calm - N/A   Clear
9:53 PM 71.1 °F - 57.9 °F 63% 29.85 in 10.0 mi Calm Calm - N/A   Clear
10:53 PM 68.0 °F - 57.9 °F 70% 29.84 in 10.0 mi Calm Calm - N/A   Clear